Location: Little Baddow
(51.7333°N, 0.5667°E)
Time: 22:52:31
(UTC+00:00)

Cosmos 1727 Rocket - Pass Details

Date: 08 November 2025
Orbit: 961 x 995 km, 82.9° (Epoch: 04 December)

Event Time Altitude Azimuth Distance (km) Brightness Sun altitude
Rises 04:54:06 0° 204° (SSW) 3,638 6.8 -20.3°
Reaches altitude 10° 04:56:39 10° 209° (SSW) 2,698 6.1 -19.9°
Maximum altitude 05:02:41 54° 286° (WNW) 1,170 4.0 -19.0°
Drops below altitude 10° 05:08:49 10° 3° (N) 2,735 6.3 -18.0°
Sets 05:11:25 0° 9° (N) 3,692 7.1 -17.6°
